Theta_e
314 316 320 327 331 331 332 334 336 337 337 337 336 336 338 338 336 334 330 325 323 320 316 314 312 311 310 310 310 307 308 305 303 304 306 307 303 303 307 309 312 308 309
314 318 322 323 326 328 332 334 336 336 337 336 335 334 335 336 331 329 327 325 321 317 314 314 314 315 311 310 309 306 308 306 304 302 303 301 302 303 304 306 310 311 308
317 319 319 320 323 328 332 335 336 336 334 336 337 335 335 332 329 328 327 325 320 317 315 315 312 314 310 308 308 307 307 308 305 304 300 299 300 302 303 303 305 304 309
315 315 317 317 320 326 332 332 334 335 335 334 337 335 334 333 330 328 325 322 317 315 314 316 314 313 311 310 310 309 308 305 301 299 297 297 298 300 302 300 297 299 304
314 312 313 318 319 319 327 329 332 333 336 335 335 333 333 332 329 326 323 320 317 314 315 314 314 314 316 312 310 308 306 303 299 296 295 294 295 298 298 300 297 298 297
313 312 313 317 320 319 322 329 329 332 332 334 333 332 330 331 314 315 319 318 316 314 310 310 312 315 313 312 311 310 307 301 296 295 292 292 293 295 296 296 296 293 292
308 310 312 315 319 320 323 329 328 330 329 330 330 329 327 328 310 311 313 316 314 310 308 305 305 308 308 307 307 307 306 305 303 295 292 292 293 295 296 295 294 293 292
308 309 311 314 316 317 322 326 329 330 330 330 328 326 326 320 309 309 311 313 311 307 306 303 302 300 303 303 302 300 299 298 295 296 295 295 296 297 298 297 295 293 292
308 308 311 313 315 314 315 323 327 329 329 329 327 325 323 315 306 306 312 311 307 304 304 302 300 301 300 300 299 296 296 297 301 301 299 298 297 298 297 296 293 291 288
308 308 311 314 316 314 313 322 326 325 327 328 326 325 317 312 303 304 310 310 305 304 302 302 301 302 299 297 297 296 295 295 297 295 296 297 299 299 299 293 291 290 288
309 310 311 314 318 316 315 322 324 325 324 323 322 319 314 311 307 303 305 310 307 306 303 302 300 299 297 296 297 297 297 295 297 294 294 295 297 297 296 295 293 293 290
308 309 311 312 315 317 319 323 321 324 322 320 317 315 314 311 306 302 303 305 305 307 304 302 300 297 297 296 297 296 296 299 300 299 297 295 296 296 296 296 296 296 296
306 308 310 314 316 319 320 323 323 324 322 317 315 313 311 312 308 301 301 301 302 306 303 299 296 296 296 297 297 296 298 298 297 297 296 294 294 297 298 297 297 298 296
305 307 311 314 317 323 322 325 324 322 317 316 315 312 311 310 309 308 305 303 300 301 299 298 297 297 299 298 297 297 299 298 298 295 293 293 294 295 297 298 296 294 291
308 308 311 313 316 322 323 324 323 323 317 316 314 312 310 309 309 307 306 304 301 298 298 297 297 296 295 295 295 297 296 298 295 294 294 294 294 293 293 294 295 292 292
306 307 310 313 320 320 320 314 301 307 303 303 304 311 312 307 299 297 296 295 293 294 298 296 296 295 296 297 296 295 295 297 295 294 294 294 293 292 293 292 291 291 291
307 309 313 315 320 319 319 316 307 301 298 299 298 300 301 298 295 295 293 291 291 294 296 296 297 296 296 298 296 297 296 296 295 294 295 294 293 293 294 291 291 290 288
312 306 318 318 318 317 318 314 312 310 307 304 296 298 295 295 294 293 292 293 294 295 296 296 296 296 298 298 297 297 296 295 294 293 294 293 293 293 293 292 290 289 288
317 316 317 316 316 314 315 312 312 308 305 301 298 295 295 293 292 291 293 297 296 297 298 298 297 298 299 299 298 297 297 294 294 295 295 293 291 292 291 292 290 288 288
316 307 309 314 313 313 313 311 308 306 304 301 300 297 296 295 297 296 299 298 298 299 300 299 299 300 300 299 297 296 296 293 294 294 294 292 291 291 290 290 291 290 289
314 311 303 313 313 314 313 310 309 307 303 303 302 300 296 301 297 299 300 300 300 300 301 301 301 301 300 299 297 297 296 294 293 294 294 293 292 291 290 291 290 290 289
312 312 313 312 313 313 313 311 309 306 304 303 302 296 291 302 301 301 300 301 301 303 303 302 300 300 300 299 297 297 296 294 293 293 293 293 293 292 291 289 289 288 288
311 311 312 312 312 303 309 311 309 307 304 301 299 299 302 301 302 301 300 301 301 301 300 300 299 298 298 298 298 298 296 294 294 294 293 292 292 292 291 290 289 287 286
310 310 310 308 309 308 308 307 304 299 302 301 301 301 301 302 302 301 301 302 300 298 298 298 298 298 297 297 297 297 296 295 295 295 294 293 292 291 290 288 287 287 286
308 308 307 307 306 306 303 303 302 302 302 301 302 301 301 302 303 303 301 301 299 297 296 297 298 298 298 296 296 295 290 289 294 291 294 293 293 291 289 288 288 287 287
307 307 306 306 305 304 303 302 302 302 302 302 302 301 302 303 302 302 300 300 298 297 297 297 296 295 295 295 294 288 287 288 291 289 293 294 292 291 290 289 289 288 288
Wind_Speed
8 9 8 7 8 8 8 11 13 13 16 17 14 15 13 16 12 11 9 10 10 8 7 9 7 7 5 5 5 4 4 3 5 2 2 1 2 3 5 6 7 5 4
7 8 8 7 6 7 9 11 13 14 15 16 16 17 13 15 11 11 12 11 12 11 10 7 8 5 7 6 5 6 4 3 6 7 1 1 3 2 4 7 5 4 4
7 6 8 8 7 8 10 12 13 15 16 15 19 20 19 12 11 11 11 10 10 10 11 9 8 9 6 5 5 6 4 4 4 7 3 1 2 2 6 4 3 4 3
6 7 8 9 8 8 10 14 15 15 18 17 14 14 14 11 13 12 12 11 10 10 10 9 10 9 9 8 7 7 5 6 6 5 3 2 2 2 3 3 3 1 3
6 7 8 12 9 8 9 14 15 13 14 22 17 14 13 13 11 14 13 12 11 11 9 8 7 9 12 8 7 6 7 5 5 4 3 2 1 3 2 1 3 2 1
7 10 8 10 10 9 9 12 16 14 9 13 15 16 18 12 16 16 15 13 12 12 10 8 8 12 11 13 12 9 12 11 5 4 3 3 2 2 1 1 1 3 1
8 11 10 9 10 10 8 10 14 15 13 11 16 16 16 14 19 19 18 11 12 11 11 11 8 8 11 10 13 14 13 10 5 7 8 4 4 5 4 3 3 3 1
13 12 10 9 9 9 7 9 15 13 14 14 15 17 15 10 22 20 18 13 11 12 11 9 12 9 10 12 13 11 8 7 7 6 8 6 4 4 5 6 5 4 2
14 12 12 10 11 6 6 8 8 12 14 11 16 18 18 14 21 22 20 15 13 12 10 10 12 11 11 15 14 12 7 5 5 11 11 9 5 6 7 5 3 4 3
14 12 11 9 10 5 6 8 10 9 17 15 15 18 20 18 25 23 20 12 13 10 7 10 13 13 14 14 13 13 12 7 7 6 5 7 7 8 10 6 5 5 2
12 12 12 10 8 8 7 6 10 13 11 9 14 13 16 19 17 23 22 12 12 11 10 8 8 16 15 13 13 10 12 8 7 6 5 4 3 5 5 5 5 6 3
11 13 12 9 9 7 8 11 9 14 16 11 11 10 9 14 19 18 19 16 16 14 11 8 9 15 16 14 10 10 13 10 6 5 5 3 2 3 4 5 5 6 4
9 13 12 12 11 9 7 11 10 11 11 13 13 12 11 9 8 18 18 20 18 13 9 11 15 14 17 12 10 12 12 5 5 6 6 4 4 5 6 5 6 7 6
13 12 11 11 8 7 4 8 9 11 11 12 12 13 13 12 11 10 12 10 16 12 16 11 9 9 9 8 7 7 6 5 7 6 5 4 3 4 3 3 4 3 4
11 10 10 7 8 8 7 9 10 12 15 14 13 15 15 13 13 16 18 12 10 13 13 8 7 7 7 5 4 5 5 5 6 4 4 4 3 3 3 3 4 3 4
11 9 8 7 7 7 7 3 8 13 15 15 18 19 14 17 22 20 19 20 22 20 10 9 8 7 8 7 6 4 3 8 5 5 4 5 5 4 5 3 4 4 5
11 11 8 9 8 9 9 8 7 9 9 15 15 16 17 24 22 25 24 23 18 16 8 8 9 9 8 8 6 5 4 4 6 6 6 5 5 5 8 5 4 5 3
12 13 7 7 7 8 10 9 9 11 11 7 10 21 27 29 28 27 27 22 11 7 9 9 8 8 7 7 6 4 4 4 4 5 6 6 6 6 6 6 4 5 4
8 7 8 7 7 7 8 9 9 11 11 11 11 8 16 27 26 28 23 13 12 9 8 7 7 8 6 6 5 6 7 6 5 5 5 6 5 6 5 6 5 5 5
7 10 9 8 8 9 9 10 10 11 13 12 12 13 11 15 14 15 11 11 10 9 9 8 8 7 6 7 6 6 6 6 5 4 5 6 5 5 5 7 6 5 3
6 7 10 9 9 8 9 11 11 12 12 12 14 14 18 14 14 12 10 9 8 8 8 8 8 7 7 7 7 7 7 5 5 5 5 5 5 5 5 5 5 5 5
6 8 9 9 8 8 7 9 11 12 14 14 13 9 11 11 10 8 7 7 6 7 7 8 7 8 8 9 8 8 8 7 5 5 5 5 5 5 5 5 5 4 4
7 7 7 7 8 9 8 8 9 12 13 14 15 14 12 11 10 9 8 7 5 5 5 7 7 7 6 7 7 9 9 8 7 6 6 6 6 6 6 6 6 4 4
7 8 8 7 8 8 10 9 8 11 13 14 15 12 12 11 10 9 6 6 6 5 5 7 7 10 8 7 6 6 6 6 6 7 9 7 6 7 6 5 5 6 5
7 7 8 8 8 8 10 10 10 10 12 13 14 12 12 11 11 10 7 6 5 5 5 6 7 10 11 11 8 8 8 10 7 7 5 8 9 10 7 5 5 5 4
7 8 7 7 8 9 9 9 9 10 11 12 12 12 12 11 10 10 8 9 6 4 5 5 8 11 11 9 10 11 11 11 9 9 7 7 8 7 6 7 9 5 6
Wind_Direction
318 304 284 271 250 233 205 212 200 196 200 192 177 182 202 206 193 167 165 166 152 140 137 151 159 160 131 118 106 105 111 125 120 66 101 22 38 26 59 120 133 126 128
294 292 287 288 262 234 201 205 201 194 196 179 175 179 208 201 179 162 168 170 153 152 150 154 151 143 117 127 122 122 121 98 115 125 137 52 66 357 94 122 145 141 140
314 313 294 291 278 248 207 198 195 198 192 181 184 190 183 178 172 165 169 162 161 156 148 165 147 139 130 137 125 121 126 94 105 130 138 100 71 34 75 75 108 116 189
314 307 298 291 281 253 222 193 193 202 185 190 187 168 163 161 186 172 162 160 160 153 156 152 147 146 148 147 138 135 119 103 103 114 97 94 86 354 81 112 82 95 206
287 289 293 293 282 268 238 197 188 196 192 181 177 170 169 184 186 167 159 161 162 153 146 132 143 142 137 150 136 145 121 107 115 118 113 88 34 57 87 5 130 142 285
263 280 269 286 268 253 244 205 191 187 187 159 165 170 177 183 174 158 153 160 158 152 139 126 128 122 122 120 115 125 140 136 140 129 133 136 159 161 157 130 96 92 358
260 272 273 273 269 260 250 196 192 200 190 172 164 169 174 175 164 159 154 153 154 139 137 139 126 120 114 112 101 99 90 79 112 153 141 150 154 195 138 92 75 100 168
280 283 274 264 263 251 251 221 184 186 199 200 182 168 165 163 159 159 147 142 145 139 145 144 131 129 130 125 111 103 100 110 120 122 119 146 157 158 141 139 142 117 14
272 276 274 269 272 240 221 233 192 169 219 187 179 165 161 158 159 152 148 144 147 142 146 138 137 133 143 131 118 118 114 106 99 112 113 116 123 143 122 108 87 92 43
268 268 267 262 276 257 212 198 184 178 195 218 175 174 168 154 159 152 148 143 142 136 144 133 133 143 142 131 128 135 135 155 135 107 82 66 66 84 85 99 143 121 118
266 268 266 262 265 279 220 199 177 154 142 190 162 164 152 152 163 148 145 148 148 144 144 144 146 147 143 142 135 147 155 144 134 123 119 97 73 87 84 75 81 114 111
262 266 262 267 266 269 204 207 175 166 166 175 155 148 148 151 156 144 142 139 148 145 150 148 152 152 158 152 151 154 136 127 138 134 130 129 152 119 116 111 99 79 60
255 265 259 264 263 254 207 191 183 166 162 158 160 150 144 151 143 130 132 140 137 136 137 143 141 152 159 150 154 145 141 133 136 144 146 161 200 161 125 94 74 75 58
258 259 253 249 260 225 185 182 168 171 163 159 158 153 154 151 151 144 136 124 112 115 125 128 141 132 137 133 135 151 139 150 155 153 151 145 136 118 119 129 105 97 77
246 253 249 248 239 213 199 179 175 178 170 161 164 154 156 163 172 163 148 148 135 136 123 133 138 130 133 137 144 157 145 142 141 145 128 140 115 119 124 144 124 140 124
245 246 241 242 219 191 178 124 40 149 145 147 158 161 168 157 146 134 127 129 132 136 137 149 153 147 151 159 155 150 144 149 148 141 138 145 134 136 123 92 93 120 136
236 236 236 225 200 182 168 160 123 49 107 144 140 133 142 141 134 129 128 127 130 130 144 162 163 159 161 162 156 153 144 156 142 138 150 145 132 135 137 135 129 130 126
237 222 205 190 164 155 160 145 149 147 149 131 103 134 134 136 137 137 135 130 139 130 154 156 163 152 162 161 152 142 128 133 124 133 131 136 139 140 140 141 140 135 133
218 184 164 147 140 150 144 138 142 133 128 121 109 80 137 135 136 139 144 139 148 151 155 152 156 151 160 151 145 139 144 146 140 139 139 141 141 134 130 143 143 149 131
165 161 140 137 142 137 138 133 137 135 132 140 144 140 139 134 141 152 148 153 158 160 157 152 160 159 158 151 146 149 135 129 138 125 144 148 144 138 139 139 156 155 155
135 152 144 141 149 148 142 147 145 141 140 148 147 154 163 149 147 153 145 151 154 148 157 164 163 157 158 152 152 152 139 145 141 136 149 146 143 135 138 138 149 154 147
139 150 147 141 136 129 143 146 146 141 145 145 141 140 130 130 141 143 130 144 144 152 159 154 153 158 158 159 158 148 146 148 148 145 142 139 142 140 134 131 133 136 135
130 126 120 128 128 119 109 133 139 141 140 142 146 150 144 139 139 142 144 150 135 130 130 137 138 138 141 144 152 152 152 161 167 150 139 134 145 141 136 140 142 131 124
111 115 114 106 118 118 124 115 107 117 129 139 145 146 135 140 137 136 117 122 110 119 130 138 143 147 142 143 141 141 143 142 147 156 143 144 142 137 135 134 150 145 132
99 107 113 118 118 114 111 118 120 130 134 138 142 139 135 135 136 134 117 100 96 125 126 129 131 141 140 140 144 140 139 139 141 136 134 135 144 145 145 141 141 128 127
99 100 102 105 109 113 120 123 127 131 135 138 137 135 136 135 131 129 129 124 121 78 114 109 125 126 129 133 135 131 139 139 142 131 128 133 137 137 139 141 146 138 137